2016-067C

Last updated on Thu Jan 26 2017 00:17:35 GMT+0000 (Coordinated Universal Time)

1 41850U 16067C 17025.17374833 -.00000128 00000-0 -59191-5 0 9992 2 41850 97.9639 100.8141 0010151 58.7802 301.4412 14.96431918 11111
UTC large
Height (km)
Speed (km/s)
/
Latitude / Longitude
Inclination (degrees)
Orbital Period (minutes)
Azimuth
Elevation
Range (km)
Doppler Factor

Next 0 passes for location: London (51.5072 / 0.1276)

Sorry there are no passes over London.